Location: Penzberg
(47.7615°N, 11.3159°E)
Time: 04:41:05
(UTC+01:00)

OTV 5 (USA 277) - Visible Passes

Search period start: 20 February 2018 00:00
Search period end: 02 March 2018 00:00
Orbit: 404 x 417 km, 43.0° (Epoch: 07 September)

Date Brightness Start Highest point End Pass type
(mag) Time Alt. Az. Time Alt. Az. Time Alt. Az.
21 Feb ? 05:58:10 10° S 05:59:59 14° SSE 06:01:48 10° ESE visible
22 Feb ? 05:08:39 10° SSE 05:09:08 10° SSE 05:09:36 10° SE visible
23 Feb ? 05:52:17 11° SW 05:54:48 23° SSE 05:57:29 10° ESE visible
24 Feb ? 05:03:42 18° SSE 05:03:54 18° SSE 05:06:15 10° ESE visible
25 Feb ? 05:47:48 17° SW 05:49:45 31° S 05:52:43 10° ESE visible
26 Feb ? 04:59:06 27° SSE 04:59:06 27° SSE 05:01:39 10° ESE visible
27 Feb ? 04:10:22 11° ESE 04:10:22 11° ESE 04:10:32 10° ESE visible
27 Feb ? 05:43:07 21° SW 05:44:44 35° S 05:47:47 10° ESE visible
28 Feb ? 04:54:23 31° SSE 04:54:23 31° SSE 04:56:47 10° ESE visible
01 Mar ? 04:05:38 11° ESE 04:05:38 11° ESE 04:05:46 10° ESE visible
01 Mar ? 05:38:23 23° SW 05:39:43 32° S 05:42:42 10° ESE visible
